Location: Oroua River
(40.4333°S, 175.4333°E)
Time: 14:09:36
(UTC+00:00)

Cosmos 1980 Rocket - Pass Details

Date: 03 February 2023
Orbit: 828 x 850 km, 71.0° (Epoch: 30 March)

Event Time Altitude Azimuth Distance (km) Brightness Sun altitude
Rises 16:04:05 0° 6° (N) 3,389 5.0 -14.8°
Reaches altitude 10° 16:06:45 10° 16° (NNE) 2,459 4.4 -14.4°
Maximum altitude 16:11:40 32° 76° (ENE) 1,426 3.8 -13.6°
Drops below altitude 10° 16:16:37 10° 137° (SE) 2,473 6.0 -12.9°
Sets 16:19:17 0° 146° (SSE) 3,412 6.8 -12.5°
